When you browse on this site, cookies collect data to enhance your experience and personalize the content and advertising you see.
Visit our Privacy Policy to learn more. By continuing to use the site, you agree to this use of cookies and data.
  • In Hungary
  • List of Countries
  • For 7 days
  • Water Temperature
  • Weather Map
  • News
  • Weather Widgets
  • user-avatar
    Login

    Hourly Weather Carrefour

    Today, 14 November, Thursday

    Time Temperature Precipitation Wind Pressure Humidity
    00:00 +26°C° 0 mm 1 mps 749 mmHg 83%
    01:00 +26°C° 0 mm 1 mps 749 mmHg 83%
    02:00 +26°C° 0 mm 1 mps 749 mmHg 84%
    03:00 +26°C° 0 mm 1 mps 749 mmHg 84%
    04:00 +26°C° 0 mm 1 mps 749 mmHg 84%
    05:00 +26°C° 0 mm 1 mps 749 mmHg 84%
    06:00 +26°C° 0 mm 1 mps 750 mmHg 83%
    07:00 +27°C° 0 mm 1 mps 750 mmHg 83%
    08:00 +28°C° 0 mm 1 mps 751 mmHg 80%
    09:00 +29°C° 0 mm 1 mps 751 mmHg 76%
    10:00 +30°C° 0 mm 1 mps 752 mmHg 72%
    11:00 +30°C° 0.5 mm 1 mps 751 mmHg 73%
    12:00 +30°C° 0.5 mm 1 mps 750 mmHg 73%
    13:00 +30°C° 0.5 mm 1 mps 749 mmHg 74%
    14:00 +30°C° 1 mm 1 mps 749 mmHg 76%
    15:00 +30°C° 1 mm 1 mps 749 mmHg 77%
    16:00 +29°C° 1 mm 1 mps 749 mmHg 79%
    17:00 +29°C° 0.4 mm 1 mps 749 mmHg 81%
    18:00 +26°C° 0.4 mm 0 mps 750 mmHg 82%
    19:00 +25°C° 0.4 mm 0 mps 750 mmHg 83%
    20:00 +25°C° 0 mm 0 mps 750 mmHg 84%
    21:00 +25°C° 0 mm 0 mps 750 mmHg 84%
    22:00 +26°C° 0 mm 1 mps 751 mmHg 84%
    23:00 +26°C° 0 mm 1 mps 750 mmHg 84%

    Tomorrow, 15 November, Friday

    Time Temperature Precipitation Wind Pressure Humidity
    00:00 +26°C° 0 mm 1 mps 750 mmHg 84%
    01:00 +26°C° 0 mm 1 mps 750 mmHg 84%
    02:00 +26°C° 0 mm 1 mps 750 mmHg 84%
    03:00 +25°C° 0 mm 1 mps 750 mmHg 84%
    04:00 +25°C° 0 mm 1 mps 749 mmHg 84%
    05:00 +26°C° 0 mm 1 mps 750 mmHg 83%
    06:00 +26°C° 0 mm 1 mps 750 mmHg 83%
    07:00 +27°C° 0 mm 1 mps 751 mmHg 82%
    08:00 +28°C° 0 mm 1 mps 751 mmHg 79%
    09:00 +29°C° 0 mm 1 mps 751 mmHg 75%
    10:00 +30°C° 0 mm 1 mps 751 mmHg 71%
    11:00 +30°C° 0.1 mm 1 mps 750 mmHg 71%
    12:00 +30°C° 0.1 mm 1 mps 750 mmHg 71%
    13:00 +30°C° 0.1 mm 1 mps 749 mmHg 71%
    14:00 +30°C° 0.3 mm 2 mps 749 mmHg 74%
    15:00 +30°C° 0.3 mm 2 mps 748 mmHg 76%
    16:00 +29°C° 0.3 mm 2 mps 748 mmHg 79%
    17:00 +28°C° 0.2 mm 1 mps 749 mmHg 81%
    18:00 +27°C° 0.2 mm 1 mps 749 mmHg 84%
    19:00 +27°C° 0.2 mm 1 mps 749 mmHg 86%
    20:00 +26°C° 0.1 mm 1 mps 749 mmHg 86%
    21:00 +26°C° 0.1 mm 1 mps 749 mmHg 86%
    22:00 +24°C° 0.1 mm 0 mps 749 mmHg 85%
    23:00 +24°C° 0 mm 0 mps 749 mmHg 85%

    Day after tomorrow, 16 November, Saturday

    Time Temperature Precipitation Wind Pressure Humidity
    00:00 +24°C° 0 mm 0 mps 749 mmHg 86%
    01:00 +26°C° 0 mm 1 mps 749 mmHg 86%
    02:00 +26°C° 0 mm 1 mps 748 mmHg 86%
    03:00 +24°C° 0 mm 0 mps 748 mmHg 87%
    04:00 +24°C° 0 mm 0 mps 748 mmHg 87%
    05:00 +24°C° 0 mm 0 mps 748 mmHg 87%
    06:00 +24°C° 0 mm 0 mps 749 mmHg 87%
    07:00 +27°C° 0 mm 1 mps 749 mmHg 86%
    08:00 +28°C° 0 mm 1 mps 749 mmHg 83%
    09:00 +29°C° 0 mm 1 mps 749 mmHg 79%
    10:00 +29°C° 0 mm 1 mps 749 mmHg 76%
    11:00 +30°C° 0.2 mm 1 mps 749 mmHg 76%
    12:00 +30°C° 0.2 mm 2 mps 748 mmHg 75%
    13:00 +30°C° 0.2 mm 2 mps 747 mmHg 74%
    14:00 +30°C° 0.4 mm 2 mps 747 mmHg 76%
    15:00 +29°C° 0.4 mm 2 mps 747 mmHg 78%
    16:00 +29°C° 0.4 mm 2 mps 746 mmHg 80%
    17:00 +28°C° 0.3 mm 2 mps 747 mmHg 82%
    18:00 +27°C° 0.3 mm 1 mps 747 mmHg 84%
    19:00 +26°C° 0.3 mm 1 mps 747 mmHg 86%
    20:00 +26°C° 0 mm 1 mps 747 mmHg 86%
    21:00 +26°C° 0 mm 1 mps 747 mmHg 86%
    22:00 +24°C° 0 mm 0 mps 748 mmHg 87%
    23:00 +26°C° 0 mm 1 mps 747 mmHg 87%

    17 November, Sunday

    Time Temperature Precipitation Wind Pressure Humidity
    00:00 +26°C° 0 mm 1 mps 747 mmHg 87%
    01:00 +26°C° 0 mm 1 mps 747 mmHg 87%
    02:00 +26°C° 0 mm 1 mps 747 mmHg 87%
    03:00 +25°C° 0 mm 1 mps 746 mmHg 87%
    04:00 +25°C° 0 mm 1 mps 746 mmHg 87%
    05:00 +26°C° 0 mm 1 mps 747 mmHg 87%
    06:00 +26°C° 0 mm 1 mps 747 mmHg 86%
    07:00 +26°C° 0 mm 1 mps 748 mmHg 85%
    08:00 +28°C° 0 mm 1 mps 748 mmHg 81%
    09:00 +29°C° 0 mm 1 mps 748 mmHg 78%
    10:00 +30°C° 0 mm 1 mps 748 mmHg 74%
    11:00 +30°C° 0.1 mm 1 mps 747 mmHg 74%
    12:00 +30°C° 0.1 mm 1 mps 746 mmHg 74%
    13:00 +30°C° 0.1 mm 1 mps 746 mmHg 74%
    14:00 +30°C° 0.3 mm 1 mps 746 mmHg 75%
    15:00 +29°C° 0.3 mm 1 mps 745 mmHg 77%
    16:00 +29°C° 0.3 mm 1 mps 745 mmHg 79%
    17:00 +28°C° 0.1 mm 1 mps 746 mmHg 81%
    18:00 +27°C° 0.1 mm 1 mps 746 mmHg 84%
    19:00 +27°C° 0.1 mm 1 mps 746 mmHg 86%
    20:00 +24°C° 0 mm 0 mps 747 mmHg 86%
    21:00 +24°C° 0 mm 0 mps 747 mmHg 85%
    22:00 +24°C° 0 mm 0 mps 747 mmHg 84%
    23:00 +24°C° 0 mm 0 mps 747 mmHg 85%

    18 November, Monday

    Time Temperature Precipitation Wind Pressure Humidity
    00:00 +26°C° 0 mm 1 mps 746 mmHg 86%
    01:00 +25°C° 0 mm 1 mps 746 mmHg 86%
    02:00 +25°C° 0 mm 1 mps 746 mmHg 86%
    03:00 +25°C° 0 mm 1 mps 746 mmHg 86%
    04:00 +25°C° 0 mm 1 mps 746 mmHg 87%
    05:00 +26°C° 0 mm 1 mps 747 mmHg 86%
    06:00 +26°C° 0 mm 1 mps 747 mmHg 85%
    07:00 +26°C° 0 mm 1 mps 748 mmHg 83%
    08:00 +28°C° 0 mm 1 mps 748 mmHg 80%
    09:00 +29°C° 0 mm 1 mps 748 mmHg 76%
    10:00 +30°C° 0 mm 1 mps 749 mmHg 72%
    11:00 +30°C° 0.4 mm 1 mps 748 mmHg 72%
    12:00 +30°C° 0.4 mm 1 mps 748 mmHg 73%
    13:00 +30°C° 0.4 mm 1 mps 747 mmHg 73%
    14:00 +30°C° 0.5 mm 1 mps 747 mmHg 75%
    15:00 +29°C° 0.5 mm 1 mps 747 mmHg 77%
    16:00 +29°C° 0.5 mm 1 mps 746 mmHg 79%
    17:00 +28°C° 0.2 mm 1 mps 747 mmHg 81%
    18:00 +28°C° 0.2 mm 1 mps 747 mmHg 83%
    19:00 +25°C° 0.2 mm 0 mps 748 mmHg 86%
    20:00 +25°C° 0 mm 0 mps 748 mmHg 86%
    21:00 +26°C° 0 mm 1 mps 748 mmHg 86%
    22:00 +26°C° 0 mm 1 mps 748 mmHg 86%
    23:00 +26°C° 0 mm 1 mps 748 mmHg 86%

    19 November, Tuesday

    Time Temperature Precipitation Wind Pressure Humidity
    00:00 +26°C° 0 mm 1 mps 748 mmHg 86%
    01:00 +26°C° 0 mm 1 mps 748 mmHg 86%
    02:00 +26°C° 0 mm 1 mps 748 mmHg 86%
    03:00 +25°C° 0 mm 1 mps 748 mmHg 86%
    04:00 +25°C° 0 mm 1 mps 748 mmHg 87%
    05:00 +26°C° 0 mm 1 mps 748 mmHg 86%
    06:00 +26°C° 0 mm 1 mps 749 mmHg 85%
    07:00 +27°C° 0 mm 1 mps 749 mmHg 84%
    08:00 +28°C° 0 mm 1 mps 749 mmHg 80%
    09:00 +29°C° 0 mm 1 mps 749 mmHg 77%
    10:00 +30°C° 0 mm 1 mps 750 mmHg 73%
    11:00 +30°C° 0.6 mm 1 mps 749 mmHg 74%
    12:00 +30°C° 0.6 mm 1 mps 748 mmHg 75%
    13:00 +30°C° 0.6 mm 1 mps 748 mmHg 76%
    14:00 +30°C° 1 mm 1 mps 748 mmHg 77%
    15:00 +29°C° 1 mm 1 mps 748 mmHg 79%
    16:00 +29°C° 1 mm 1 mps 747 mmHg 81%
    17:00 +28°C° 0.4 mm 1 mps 748 mmHg 82%
    18:00 +27°C° 0.4 mm 1 mps 748 mmHg 84%
    19:00 +25°C° 0.4 mm 0 mps 749 mmHg 85%
    20:00 +25°C° 0 mm 0 mps 749 mmHg 85%
    21:00 +24°C° 0 mm 0 mps 749 mmHg 86%
    22:00 +24°C° 0 mm 0 mps 749 mmHg 86%
    23:00 +24°C° 0 mm 0 mps 749 mmHg 86%
    Show more